Terminal Aerodrome Forecast
Issued by NWS

Home | Current Version | Previous Version | Text Only | Print | Product List | Glossary Off
Versions: 1 2 3 4 5 6 7 8 9 10 11 12 13 14 15 16

992
FTUS43 KGRB 020535
TAFCWA
TAF
KCWA 020535Z 0206/0306 30005KT P6SM BKN025 OVC035
     FM030200 30004KT P6SM OVC018=

USA.gov is the U.S. government's official web portal to all federal, state and local government web resources and services.